Location: Dodgeville, WI 53533, USA
(43.0344°N, 90.0900°W)
Time: 23:42:22
(UTC-06:00)

ISS - Pass Details

Date: 01 February 2021
Orbit: 417 x 422 km, 51.6° (Epoch: 08 March)

Event Time Altitude Azimuth Distance (km) Brightness Sun altitude
Rises 19:40:50 0° 301° (WNW) 2,375 1.0 -27.1°
Reaches altitude 10° 19:42:57 10° 297° (WNW) 1,508 -0.1 -27.5°
Enters shadow 19:44:13 21° 292° (WNW) 1,013 -1.2 -27.7°
